H1 CPF 2 NER 2025 7 27 9 208 01 glonass131 H2 1301901 9131 39155 2025 7 27 0 0 0 2025 7 30 23 45 0 900 1 1 0 0 0 1 H9 10 0 60883 0.00000 0 19432817.312 -7745694.597 -14505779.993 10 0 60883 900.00000 0 17904519.554 -6531019.069 -16875907.414 10 0 60883 1800.00000 0 16282738.522 -5009612.240 -18916252.121 10 0 60883 2700.00000 0 14631590.161 -3196634.917 -20586986.222 10 0 60883 3600.00000 0 13012834.354 -1119970.408 -21855557.462 10 0 60883 4500.00000 0 11483308.004 1180695.238 -22697327.950 10 0 60883 5400.00000 0 10092589.443 3655296.645 -23096051.168 10 0 60883 6300.00000 0 8880993.143 6245255.718 -23044178.358 10 0 60883 7200.00000 0 7877978.934 8885712.099 -22542989.260 10 0 60883 8100.00000 0 7101041.533 11508022.846 -21602546.033 10 0 60883 9000.00000 0 6555125.167 14042425.761 -20241472.916 10 0 60883 9900.00000 0 6232585.305 16420754.322 -18486567.744 10 0 60883 10800.00000 0 6113696.059 18579090.609 -16372254.775 10 0 60883 11700.00000 0 6167678.676 20460245.969 -13939891.258 10 0 60883 12600.00000 0 6354204.651 22015966.912 -11236942.886 10 0 60883 13500.00000 0 6625307.360 23208775.984 -8316045.585 10 0 60883 14400.00000 0 6927619.386 24013373.039 -5233972.911 10 0 60883 15300.00000 0 7204839.671 24417541.115 -2050529.891 10 0 60883 16200.00000 0 7400325.679 24422521.919 1172604.937 10 0 60883 17100.00000 0 7459701.268 24042848.070 4373066.965 10 0 60883 18000.00000 0 7333370.936 23305641.598 7488999.942 10 0 60883 18900.00000 0 6978835.662 22249409.986 10460235.290 10 0 60883 19800.00000 0 6362714.225 20922391.344 13229434.882 10 0 60883 20700.00000 0 5462386.344 19380518.325 15743176.850 10 0 60883 21600.00000 0 4267189.756 17685085.421 17952965.390 10 0 60883 22500.00000 0 2779121.594 15900215.912 19816147.064 10 0 60883 23400.00000 0 1013014.565 14090232.381 21296717.821 10 0 60883 24300.00000 0 -1003820.369 12317038.309 22366006.876 10 0 60883 25200.00000 0 -3232471.716 10637617.589 23003225.574 10 0 60883 26100.00000 0 -5623791.508 9101753.990 23195871.418 10 0 60883 27000.00000 0 -8120192.050 7750063.846 22939979.639 10 0 60883 27900.00000 0 -10657804.095 6612422.746 22240216.897 10 0 60883 28800.00000 0 -13168910.187 5706851.405 21109814.135 10 0 60883 29700.00000 0 -15584555.198 5038907.516 19570338.054 10 0 60883 30600.00000 0 -17837228.151 4601609.953 17651303.348 10 0 60883 31500.00000 0 -19863505.440 4375900.087 15389630.652 10 0 60883 32400.00000 0 -21606546.152 4331622.652 12828958.082 10 0 60883 33300.00000 0 -23018335.194 4428986.840 10018817.252 10 0 60883 34200.00000 0 -24061579.291 4620447.702 7013687.754 10 0 60883 35100.00000 0 -24711174.632 4852929.537 3871947.021 10 0 60883 36000.00000 0 -24955182.220 5070297.653 654735.271 10 0 60883 36900.00000 0 -24795267.440 5215973.305 -2575242.233 10 0 60883 37800.00000 0 -24246582.986 5235579.618 -5754951.404 10 0 60883 38700.00000 0 -23337098.227 5079504.038 -8822278.420 10 0 60883 39600.00000 0 -22106402.081 4705265.840 -11717265.154 10 0 60883 40500.00000 0 -20604029.595 4079585.110 -14383304.492 10 0 60883 41400.00000 0 -18887383.285 3180062.315 -16768269.759 10 0 60883 42300.00000 0 -17019338.177 1996394.411 -18825553.842 10 0 60883 43200.00000 0 -15065633.279 531073.606 -20514995.828 10 0 60883 44100.00000 0 -13092161.372 -1200462.451 -21803675.614 10 0 60883 45000.00000 0 -11162273.213 -3170236.381 -22666560.122 10 0 60883 45900.00000 0 -9334211.110 -5338675.767 -23086988.338 10 0 60883 46800.00000 0 -7658780.702 -7656056.691 -23056986.072 10 0 60883 47700.00000 0 -6177358.936 -10064384.537 -22577405.251 10 0 60883 48600.00000 0 -4920321.112 -12499631.994 -21657886.372 10 0 60883 49500.00000 0 -3905951.381 -14894239.307 -20316646.479 10 0 60883 50400.00000 0 -3139880.016 -17179771.085 -18580098.653 10 0 60883 51300.00000 0 -2615068.031 -19289617.934 -16482312.262 10 0 60883 52200.00000 0 -2312336.361 -21161629.929 -14064326.307 10 0 60883 53100.00000 0 -2201413.889 -22740572.373 -11373330.864 10 0 60883 54000.00000 0 -2242456.901 -23980302.451 -8461733.966 10 0 60883 54900.00000 0 -2387973.135 -24845577.602 -5386133.135 10 0 60883 55800.00000 0 -2585067.176 -25313422.241 -2206212.312 10 0 60883 56700.00000 0 -2777911.095 -25373998.285 1016414.083 10 0 60883 57600.00000 0 -2910335.580 -25030945.639 4219387.656 10 0 60883 58500.00000 0 -2928432.447 -24301180.858 7340800.622 10 0 60883 59400.00000 0 -2783059.656 -23214164.405 10320376.325 10 0 60883 60300.00000 0 -2432144.534 -21810668.526 13100614.238 10 0 60883 61200.00000 0 -1842689.706 -20141097.880 15627878.951 10 0 60883 62100.00000 0 -992398.710 -18263432.867 17853414.050 10 0 60883 63000.00000 0 129145.983 -16240880.491 19734263.315 10 0 60883 63900.00000 0 1519801.572 -14139329.037 21234083.382 10 0 60883 64800.00000 0 3164709.111 -12024710.446 22323833.900 10 0 60883 65700.00000 0 5036671.036 -9960377.707 22982333.246 10 0 60883 66600.00000 0 7097048.379 -8004604.003 23196669.832 10 0 60883 67500.00000 0 9297143.062 -6208305.437 22962461.276 10 0 60883 68400.00000 0 11580010.988 -4613080.400 22283955.945 10 0 60883 69300.00000 0 13882633.906 -3249646.178 21173973.685 10 0 60883 70200.00000 0 16138363.023 -2136737.651 19653685.148 10 0 60883 71100.00000 0 18279535.544 -1280514.450 17752231.665 10 0 60883 72000.00000 0 20240157.301 -674502.465 15506190.493 10 0 60883 72900.00000 0 21958540.854 -300073.633 12958893.181 10 0 60883 73800.00000 0 23379789.154 -127445.602 10159607.773 10 0 60883 74700.00000 0 24458020.078 -117160.828 7162598.716 10 0 60883 75600.00000 0 25158236.974 -221984.035 4026081.259 10 0 60883 76500.00000 0 25457764.417 -389138.532 811089.923 10 0 60883 77400.00000 0 25347186.130 -562786.650 -2419716.811 10 0 60883 78300.00000 0 24830742.911 -686648.239 -5603291.509 10 0 60883 79200.00000 0 23926171.386 -706644.406 -8677446.868 10 0 60883 80100.00000 0 22663988.596 -573451.858 -11582092.427 10 0 60883 81000.00000 0 21086251.528 -244856.546 -14260432.428 10 0 60883 81900.00000 0 19244843.698 312196.321 -16660098.985 10 0 60883 82800.00000 0 17199361.671 1119945.760 -18734196.094 10 0 60883 83700.00000 0 15014691.829 2188624.749 -20442232.162 10 0 60883 84600.00000 0 12758381.110 3515788.552 -21750921.386 10 0 60883 85500.00000 0 10497914.183 5086191.257 -22634837.433 10 0 60884 0.00000 0 8298013.327 6872216.072 -23076906.447 10 0 60884 900.00000 0 6218074.396 8834842.040 -23068730.274 10 0 60884 1800.00000 0 4309849.903 10925103.258 -22610734.001 10 0 60884 2700.00000 0 2615472.074 13085981.334 -21712137.093 10 0 60884 3600.00000 0 1165900.430 15254647.965 -20390749.604 10 0 60884 4500.00000 0 -20144.330 17364963.273 -18672599.591 10 0 60884 5400.00000 0 -936718.140 19350124.066 -16591400.802 10 0 60884 6300.00000 0 -1590643.907 21145350.633 -14187872.784 10 0 60884 7200.00000 0 -2000958.425 22690499.577 -11508928.343 10 0 60884 8100.00000 0 -2197842.757 23932494.031 -8606745.547 10 0 60884 9000.00000 0 -2221084.403 24827470.778 -5537743.430 10 0 60884 9900.00000 0 -2118138.748 25342556.225 -2361482.073 10 0 60884 10800.00000 0 -1941873.511 25457199.054 860491.249 10 0 60884 11700.00000 0 -1748092.473 25164006.101 4065827.557 10 0 60884 12600.00000 0 -1592943.220 24469048.796 7192570.822 10 0 60884 13500.00000 0 -1530317.772 23391629.306 10180339.610 10 0 60884 14400.00000 0 -1609354.619 21963517.662 12971474.221 10 0 60884 15300.00000 0 -1872145.953 20227692.528 15512128.806 10 0 60884 16200.00000 0 -2351745.066 18236638.213 17753289.265 10 0 60884 17100.00000 0 -3070556.343 16050268.144 19651699.301 10 0 60884 18000.00000 0 -4039174.573 13733559.797 21170678.667 10 0 60884 18900.00000 0 -5255722.041 11353997.417 22280819.581 10 0 60884 19800.00000 0 -6705711.806 8978926.311 22960549.209 10 0 60884 20700.00000 0 -8362444.369 6672926.099 23196548.205 10 0 60884 21600.00000 0 -10187923.486 4495309.493 22984017.434 10 0 60884 22500.00000 0 -12134255.850 2497848.409 22326787.271 10 0 60884 23400.00000 0 -14145479.590 722820.392 21237266.192 10 0 60884 24300.00000 0 -16159748.753 -798544.207 19736227.912 10 0 60884 25200.00000 0 -18111785.800 -2047149.703 17852438.904 10 0 60884 26100.00000 0 -19935502.338 -3016611.160 15622130.991 10 0 60884 27000.00000 0 -21566680.370 -3713293.859 13088326.594 10 0 60884 27900.00000 0 -22945602.672 -4155812.925 10300027.222 10 0 60884 28800.00000 0 -24019521.805 -4374012.544 7311278.915 10 0 60884 29700.00000 0 -24744862.917 -4407466.344 4180131.299 10 0 60884 30600.00000 0 -25089065.665 -4303561.262 967509.684 10 0 60884 31500.00000 0 -25031985.071 -4115245.639 -2263977.746 10 0 60884 32400.00000 0 -24566789.420 -3898537.401 -5451273.627 10 0 60884 33300.00000 0 -23700314.528 -3709899.311 -8532120.474 10 0 60884 34200.00000 0 -22452857.039 -3603594.680 -11446298.617 10 0 60884 35100.00000 0 -20857413.790 -3629138.371 -14136826.546 10 0 60884 36000.00000 0 -18958398.356 -3828954.185 -16551097.772 10 0 60884 36900.00000 0 -16809888.901 -4236340.864 -18641929.634 10 0 60884 37800.00000 0 -14473481.823 -4873835.619 -20368501.644 10 0 60884 38700.00000 0 -12015842.809 -5752046.577 -21697163.548 10 0 60884 39600.00000 0 -9506059.890 -6869005.017 -22602096.427 10 0 60884 40500.00000 0 -7012911.266 -8210065.454 -23065813.695 10 0 60884 41400.00000 0 -4602163.851 -9748357.771 -23079492.565 10 0 60884 42300.00000 0 -2334016.575 -11445771.669 -22643130.379 10 0 60884 43200.00000 0 -260795.571 -13254430.818 -21765524.095 10 0 60884 44100.00000 0 1575003.100 -15118593.345 -20464074.939 10 0 60884 45000.00000 0 3142242.927 -16976897.273 -18764423.832 10 0 60884 45900.00000 0 4422187.158 -18764855.349 -16699926.581 10 0 60884 46800.00000 0 5409009.324 -20417493.647 -14310980.833 10 0 60884 47700.00000 0 6109756.312 -21872022.771 -11644219.603 10 0 60884 48600.00000 0 6543769.292 -23070429.823 -8751588.462 10 0 60884 49500.00000 0 6741590.502 -23961883.212 -5689325.451 10 0 60884 50400.00000 0 6743405.031 -24504850.796 -2516864.351 10 0 60884 51300.00000 0 6597085.833 -24668844.345 704317.043 10 0 60884 52200.00000 0 6355926.045 -24435719.283 3911881.398 10 0 60884 53100.00000 0 6076155.105 -23800477.314 7043826.537 10 0 60884 54000.00000 0 5814343.371 -22771540.288 10039668.210 10 0 60884 54900.00000 0 5624803.915 -21370485.342 12841589.367 10 0 60884 55800.00000 0 5557099.646 -19631253.317 15395535.383 10 0 60884 56700.00000 0 5653759.117 -17598863.709 17652235.956 10 0 60884 57600.00000 0 5948295.479 -15327689.092 19568135.991 10 0 60884 58500.00000 0 6463610.463 -12879359.559 21106219.416 10 0 60884 59400.00000 0 7210849.571 -10320382.293 22236711.809 10 0 60884 60300.00000 0 8188756.419 -7719572.642 22937649.662 10 0 60884 61200.00000 0 9383554.042 -5145400.617 23195306.134 10 0 60884 62100.00000 0 10769359.795 -2663360.166 23004465.344 10 0 60884 63000.00000 0 12309118.934 -333467.868 22368539.439 10 0 60884 63900.00000 0 13956020.857 1792007.059 21299525.074 10 0 60884 64800.00000 0 15655342.086 3670488.478 19817798.373 10 0 60884 65700.00000 0 17346642.244 5270634.398 17951750.120 10 0 60884 66600.00000 0 18966224.007 6573408.939 15737265.688 10 0 60884 67500.00000 0 20449756.285 7572639.610 13217057.171 10 0 60884 68400.00000 0 21734951.984 8275035.224 10439858.140 10 0 60884 69300.00000 0 22764188.217 8699662.123 7459494.618 10 0 60884 70200.00000 0 23486958.062 8876899.207 4333848.769 10 0 60884 71100.00000 0 23862048.960 8846914.613 1123734.650 10 0 60884 72000.00000 0 23859353.459 8657727.687 -2108292.071 10 0 60884 72900.00000 0 23461233.030 8362938.345 -5299166.453 10 0 60884 73800.00000 0 22663374.343 8019220.838 -8386563.221 10 0 60884 74700.00000 0 21475099.017 7683689.836 -11310135.874 10 0 60884 75600.00000 0 19919111.485 7411252.810 -14012719.449 10 0 60884 76500.00000 0 18030693.994 7252063.701 -16441471.017 10 0 60884 77400.00000 0 15856381.958 7249188.672 -18548923.288 10 0 60884 78300.00000 0 13452175.550 7436585.562 -20293928.762 10 0 60884 79200.00000 0 10881363.553 7837484.847 -21642474.483 10 0 60884 80100.00000 0 8212052.216 8463242.246 -22568350.567 10 0 60884 81000.00000 0 5514504.335 9312712.377 -23053659.145 10 0 60884 81900.00000 0 2858401.524 10372169.993 -23089154.146 10 0 60884 82800.00000 0 310145.372 11615781.544 -22674406.118 10 0 60884 83700.00000 0 -2069689.106 13006605.996 -21817790.201 10 0 60884 84600.00000 0 -4228641.628 14498081.207 -20536299.087 10 0 60884 85500.00000 0 -6124301.882 16035931.589 -18855186.429 10 0 60885 0.00000 0 -7725812.888 17560415.029 -16807449.720 10 0 60885 900.00000 0 -9014883.211 19008814.057 -14433163.339 10 0 60885 1800.00000 0 -9986266.945 20318063.590 -11778679.267 10 0 60885 2700.00000 0 -10647697.943 21427407.208 -8895708.803 10 0 60885 3600.00000 0 -11019282.597 22280968.580 -5840306.907 10 0 60885 4500.00000 0 -11132381.093 22830131.702 -2671778.707 10 0 60885 5400.00000 0 -11028027.058 23035631.237 548470.073 10 0 60885 6300.00000 0 -10754954.362 22869266.939 3758116.500 10 0 60885 7200.00000 0 -10367315.617 22315172.111 6895115.146 10 0 60885 8100.00000 0 -9922188.989 21370584.772 9898881.920 10 0 60885 9000.00000 0 -9476978.037 20046090.743 12711445.440 10 0 60885 9900.00000 0 -9086813.016 18365329.534 15278545.304 10 0 60885 10800.00000 0 -8802061.503 16364175.639 17550657.943 10 0 60885 11700.00000 0 -8666051.244 14089428.998 19483932.278 10 0 60885 12600.00000 0 -8713099.236 11597067.957 21041019.043 10 0 60885 13500.00000 0 -8966928.401 8950135.487 22191779.567 10 0 60885 14400.00000 0 -9439537.538 6216343.934 22913861.741 10 0 60885 15300.00000 0 -10130571.904 3465494.912 23193132.926 10 0 60885 16200.00000 0 -11027221.724 766818.330 23023961.721 10 0 60885 17100.00000 0 -12104654.564 -1813661.880 22409342.762 10 0 60885 18000.00000 0 -13326965.966 -4215628.477 21360861.008 10 0 60885 18900.00000 0 -14648611.461 -6386736.036 19898494.519 10 0 60885 19800.00000 0 -16016263.142 -8284547.396 18050257.289 10 0 60885 20700.00000 0 -17371015.980 -9878061.021 15851686.553 10 0 60885 21600.00000 0 -18650853.850 -11148765.083 13345181.837 10 0 60885 22500.00000 0 -19793273.500 -12091173.058 10579206.074 10 0 60885 23400.00000 0 -20737956.917 -12712816.864 7607362.190 10 0 60885 24300.00000 0 -21429379.341 -13033696.213 4487361.543 10 0 60885 25200.00000 0 -21819241.746 -13085205.866 1279903.416 10 0 60885 26100.00000 0 -21868622.950 -12908585.006 -1952512.641 10 0 60885 27000.00000 0 -21549757.697 -12552953.868 -5146817.717 10 0 60885 27900.00000 0 -20847362.450 -12073021.079 -8240622.309 10 0 60885 28800.00000 0 -19759449.743 -11526559.983 -11173456.525 10 0 60885 29700.00000 0 -18297593.926 -10971762.804 -13887975.206 10 0 60885 30600.00000 0 -16486634.873 -10464587.177 -16331101.985 10 0 60885 31500.00000 0 -14363830.791 -10056210.170 -18455087.580 10 0 60885 32400.00000 0 -11977495.222 -9790700.313 -20218459.664 10 0 60885 33300.00000 0 -9385175.852 -9703008.483 -21586844.217 10 0 60885 34200.00000 0 -6651452.515 -9817364.431 -22533641.400 10 0 60885 35100.00000 0 -3845448.044 -10146147.765 -23040542.426 10 0 60885 36000.00000 0 -1038157.661 -10689281.339 -23097877.664 10 0 60885 36900.00000 0 1700290.097 -11434172.088 -22704790.006 10 0 60885 37800.00000 0 4303325.597 -12356200.638 -21869231.397 10 0 60885 38700.00000 0 6710470.870 -13419737.350 -20607784.204 10 0 60885 39600.00000 0 8869607.717 -14579640.011 -18945312.684 10 0 60885 40500.00000 0 10738887.960 -15783168.108 -16914453.214 10 0 60885 41400.00000 0 12288208.301 -16972231.259 -14554955.024 10 0 60885 42300.00000 0 13500191.089 -18085875.718 -11912885.947 10 0 60885 43200.00000 0 14370633.422 -19062903.401 -9039720.099 10 0 60885 44100.00000 0 14908409.470 -19844512.946 -5991326.371 10 0 60885 45000.00000 0 15134833.734 -20376852.023 -2826878.217 10 0 60885 45900.00000 0 15082515.270 -20613374.492 392293.678 10 0 60885 46800.00000 0 14793753.752 -20516904.669 3603883.646 10 0 60885 47700.00000 0 14318546.740 -20061323.658 6745805.691 10 0 60885 48600.00000 0 13712293.044 -19232808.641 9757378.325 10 0 60885 49500.00000 0 13033288.971 -18030574.694 12580477.985 10 0 60885 50400.00000 0 12340122.092 -16467089.198 15160640.323 10 0 60885 51300.00000 0 11689070.789 -14567750.379 17448089.986 10 0 60885 52200.00000 0 11131617.115 -12370043.177 19398681.043 10 0 60885 53100.00000 0 10712175.458 -9922206.637 20974731.809 10 0 60885 54000.00000 0 10466130.592 -7281466.508 22145739.792 10 0 60885 54900.00000 0 10418265.984 -4511904.038 22888964.371 10 0 60885 55800.00000 0 10581647.544 -1682046.578 23189866.866 10 0 60885 56700.00000 0 10957009.654 1137723.218 23042399.829 10 0 60885 57600.00000 0 11532670.152 3877835.272 22449139.575 10 0 60885 58500.00000 0 12284979.570 6472169.151 21421258.330 10 0 60885 59400.00000 0 13179288.208 8860553.141 19978334.842 10 0 60885 60300.00000 0 14171393.301 10991023.037 18148004.903 10 0 60885 61200.00000 0 15209408.434 12821747.312 15965456.035 10 0 60885 62100.00000 0 16235979.319 14322538.274 13472773.494 10 0 60885 63000.00000 0 17190754.851 15475885.231 10718147.737 10 0 60885 63900.00000 0 18013010.611 16277464.937 7754956.636 10 0 60885 64800.00000 0 18644314.521 16736106.221 4640738.667 10 0 60885 65700.00000 0 19031121.340 16873208.546 1436076.172 10 0 60885 66600.00000 0 19127184.642 16721637.596 -1796589.631 10 0 60885 67500.00000 0 18895681.782 16324143.648 -4994188.083 10 0 60885 68400.00000 0 18310958.898 15731369.420 -8094267.611 10 0 60885 69300.00000 0 17359818.905 14999532.350 -11036236.978 10 0 60885 70200.00000 0 16042294.917 14187880.866 -13762572.708 10 0 60885 71100.00000 0 14371873.719 13356034.377 -16219966.704 10 0 60885 72000.00000 0 12375157.883 12561322.097 -18360389.221 10 0 60885 72900.00000 0 10090979.578 11856235.866 -20142044.470 10 0 60885 73800.00000 0 7569003.007 11286107.091 -21530198.606 10 0 60885 74700.00000 0 4867874.587 10887107.939 -22497862.954 10 0 60885 75600.00000 0 2052999.474 10684662.418 -23026318.805 10 0 60885 76500.00000 0 -805961.211 10692334.854 -23105473.813 10 0 60885 77400.00000 0 -3637766.359 10911242.254 -22734043.832 10 0 60885 78300.00000 0 -6372331.188 11330014.137 -21919557.957 10 0 60885 79200.00000 0 -8943409.066 11925299.744 -20678188.225 10 0 60885 80100.00000 0 -11291106.946 12662799.037 -19034409.111 10 0 60885 81000.00000 0 -13364130.361 13498771.686 -17020495.319 10 0 60885 81900.00000 0 -15121665.951 14381958.186 -14675869.441 10 0 60885 82800.00000 0 -16534825.301 15255830.170 -12046313.901 10 0 60885 83700.00000 0 -17587592.817 16061073.631 -9183063.959 10 0 60885 84600.00000 0 -18277241.371 16738199.560 -6141800.560 10 0 60885 85500.00000 0 -18614201.868 17230171.784 -2981563.456 10 0 60886 0.00000 0 -18621395.587 17484941.776 236393.588 10 0 60886 900.00000 0 -18333060.267 17457784.777 3449785.042 10 0 60886 1800.00000 0 -17793121.582 17113340.041 6596486.464 10 0 60886 2700.00000 0 -17053179.973 16427271.453 9615721.487 10 0 60886 3600.00000 0 -16170197.943 15387479.904 12449216.985 10 0 60886 4500.00000 0 -15203984.795 13994817.994 15042307.331 10 0 60886 5400.00000 0 -14214583.409 12263277.801 17344968.075 10 0 60886 6300.00000 0 -13259667.069 10219643.894 19312761.055 10 0 60886 7200.00000 0 -12392053.598 7902625.332 20907674.667 10 0 60886 8100.00000 0 -11657438.943 5361501.237 22098844.894 10 0 60886 9000.00000 0 -11092443.305 2654333.973 22863144.625 10 0 60886 9900.00000 0 -10723050.316 -154178.680 23185630.818 10 0 60886 10800.00000 0 -10563503.913 -2995126.429 23059841.249 10 0 60886 11700.00000 0 -10615709.256 -5797987.299 22487934.721 10 0 60886 12600.00000 0 -10869163.735 -8493301.547 21480671.032 10 0 60886 13500.00000 0 -11301422.688 -11015310.371 20057229.391 10 0 60886 14400.00000 0 -11879082.586 -13304451.777 18244866.614 10 0 60886 15300.00000 0 -12559242.983 -15309610.869 16078419.206 10 0 60886 16200.00000 0 -13291388.357 -16990031.078 13599656.353 10 0 60886 17100.00000 0 -14019612.857 -18316805.924 10856493.795 10 0 60886 18000.00000 0 -14685095.787 -19273887.596 7902081.741 10 0 60886 18900.00000 0 -15228724.041 -19858568.324 4793782.889 10 0 60886 19800.00000 0 -15593750.459 -20081412.395 1592059.526 10 0 60886 20700.00000 0 -15728374.343 -19965639.896 -1640708.730 10 0 60886 21600.00000 0 -15588132.781 -19545986.813 -4841452.832 10 0 60886 22500.00000 0 -15137998.692 -18867088.918 -7947662.547 10 0 60886 23400.00000 0 -14354093.506 -17981457.851 -10898628.693 10 0 60886 24300.00000 0 -13224938.749 -16947135.867 -13636652.811 10 0 60886 25200.00000 0 -11752190.564 -15825130.089 -16108198.234 10 0 60886 26100.00000 0 -9950823.665 -14676736.923 -18264957.665 10 0 60886 27000.00000 0 -7848755.220 -13560872.171 -20064814.388 10 0 60886 27900.00000 0 -5485923.564 -12531522.014 -21472676.792 10 0 60886 28800.00000 0 -2912860.355 -11635424.540 -22461168.872 10 0 60886 29700.00000 0 -188816.689 -10910081.063 -23011162.890 10 0 60886 30600.00000 0 2620477.315 -10382181.738 -23112144.059 10 0 60886 31500.00000 0 5445324.378 -10066511.605 -22762400.901 10 0 60886 32400.00000 0 8214737.184 -9965382.101 -21969038.828 10 0 60886 33300.00000 0 10859168.079 -10068610.128 -20747818.258 10 0 60886 34200.00000 0 13313176.972 -10354043.258 -19122822.198 10 0 60886 35100.00000 0 15517926.456 -10788606.229 -17125961.623 10 0 60886 36000.00000 0 17423401.078 -11329821.961 -14796330.105 10 0 60886 36900.00000 0 18990259.916 -11927740.444 -12179421.958 10 0 60886 37800.00000 0 20191247.594 -12527192.113 -9326230.601 10 0 60886 38700.00000 0 21012107.751 -13070269.203 -6292245.804 10 0 60886 39600.00000 0 21451964.013 -13498929.618 -3136370.218 10 0 60886 40500.00000 0 21523155.846 -13757613.451 80223.362 10 0 60886 41400.00000 0 21250539.240 -13795762.387 3295271.818 10 0 60886 42300.00000 0 20670284.111 -13570136.928 6446616.113 10 0 60886 43200.00000 0 19828220.752 -13046835.270 9473388.028 10 0 60886 44100.00000 0 18777805.740 -12202930.424 12317167.528 10 0 60886 45000.00000 0 17577792.795 -11027658.152 14923089.969 10 0 60886 45900.00000 0 16289705.568 -9523106.827 17240883.606 10 0 60886 46800.00000 0 14975216.863 -7704380.634 19225819.410 10 0 60886 47700.00000 0 13693542.161 -5599228.878 20839556.782 10 0 60886 48600.00000 0 12498954.370 -3247155.585 22050870.680 10 0 60886 49500.00000 0 11438521.619 -698044.436 22836247.601 10 0 60886 50400.00000 0 10550160.832 1989646.490 23180339.870 10 0 60886 51300.00000 0 9861087.174 4751048.372 23076269.837 10 0 60886 52200.00000 0 9386723.586 7517317.316 22525777.820 10 0 60886 53100.00000 0 9130116.243 10218244.250 21539209.900 10 0 60886 54000.00000 0 9081881.402 12784933.733 20135344.172 10 0 60886 54900.00000 0 9220687.516 15152442.722 18341056.669 10 0 60886 55800.00000 0 9514254.545 17262271.112 16190830.866 10 0 60886 56700.00000 0 9920830.767 19064600.931 13726117.686 10 0 60886 57600.00000 0 10391087.137 20520190.462 10994555.828 10 0 60886 58500.00000 0 10870351.103 21601842.955 8049065.394 10 0 60886 59400.00000 0 11301086.606 22295386.691 4946830.778 10 0 60886 60300.00000 0 11625515.617 22600123.163 1748191.648 10 0 60886 61200.00000 0 11788269.434 22528722.426 -1484536.532 10 0 60886 62100.00000 0 11738955.725 22106568.216 -4688288.793 10 0 60886 63000.00000 0 11434530.016 21370579.193 -7800498.559 10 0 60886 63900.00000 0 10841368.066 20367555.576 -10760340.806 10 0 60886 64800.00000 0 9936948.061 19152121.297 -13509943.942 10 0 60886 65700.00000 0 8711068.173 17784349.736 -15995544.319 10 0 60886 66600.00000 0 7166545.193 16327175.099 -18168558.407 10 0 60886 67500.00000 0 5319362.494 14843700.916 -19986549.656 10 0 60886 68400.00000 0 3198259.653 13394521.534 -21414069.583 10 0 60886 69300.00000 0 843780.348 12035171.684 -22423355.567 10 0 60886 70200.00000 0 -1693181.293 10813813.202 -22994871.387 10 0 60886 71100.00000 0 -4353274.255 9769257.247 -23117680.168 10 0 60886 72000.00000 0 -7070943.607 8929405.293 -22789643.200 10 0 60886 72900.00000 0 -9776947.382 8310173.647 -22017442.028 10 0 60886 73800.00000 0 -12401031.113 7914945.027 -20816424.932 10 0 60886 74700.00000 0 -14874647.464 7734567.890 -19210282.568 10 0 60886 75600.00000 0 -17133607.302 7747900.668 -17230560.964 10 0 60886 76500.00000 0 -19120551.979 7922874.947 -14916023.159 10 0 60886 77400.00000 0 -20787144.808 8218029.785 -12311873.627 10 0 60886 78300.00000 0 -22095892.114 8584449.847 -9468862.051 10 0 60886 79200.00000 0 -23021520.220 8968023.486 -6442285.046 10 0 60886 80100.00000 0 -23551853.679 9311924.072 -3290906.119 10 0 60886 81000.00000 0 -23688161.067 9559209.173 -75815.303 10 0 60886 81900.00000 0 -23444956.837 9655427.975 3140749.407 10 0 60886 82800.00000 0 -22849270.221 9551127.660 6296596.284 10 0 60886 83700.00000 0 -21939413.897 9204154.258 9330767.502 10 0 60886 84600.00000 0 -20763305.382 8581652.501 12184698.443 10 0 60886 85500.00000 0 -19376412.016 7661681.988 14803327.786 99